To NAV CANADA Home Page Login to a new session Search on AWWS site Disclaimer Vers la page française équivalente Tips FAQ What's new on the site To the Forecasts and Observations / NOTAM section To "File a Flight Plan" website Publications and other links Update of the User's profile FIC Telephone Numbers My Weather Data Folder Route Weather Data Regional Weather Data Local Weather Data To the Forecasts and Observations / NOTAM section
Request Generated 04/24/2019 at 16:13:48 UTC . Weather information available at that time is displayed.

METAR/TAF

WHALE COVE/NU    

METAR CYXN 241600Z 10017KT 10SM FZDZ OVC030 M02/M03 A2939 RMK SC8 SLP956=
METAR CYXN 241500Z 11019KT 10SM -FZRA FEW006 OVC020 M02/M03 A2941 RMK ST2SC6 SLP962=
METAR CYXN 241400Z 11018KT 10SM -FZRA OVC030 M02/M04 A2944 RMK SC8 SLP970=

CYXN - No TAF is issued for this station

Your time UTC time
Weather data provided by Environment Canada and NAV CANADA